Weather History for KGLE - December, 2012

Change the Weather History Date:

Monday, December 31, 2012

  Actual Average (KDFW) Record (KDFW)
Temperature  
Mean Temperature 38 °F 45 °F  
Max Temperature 44 °F 56 °F 85 °F (1951)
Min Temperature 32 °F 35 °F 13 °F (1990)
Degree Days  
Heating Degree Days 27 20  
Month to date heating degree days 559  
Since 1 July heating degree days 912  
Cooling Degree Days 0 0  
Month to date cooling degree days 4  
Year to date cooling degree days 2756  
Moisture  
Dew Point 37 °F    
Average Humidity 96    
Maximum Humidity 100    
Minimum Humidity 93    
Precipitation  
Precipitation 0.32 in 0.07 in 1.55 in (1984)
Month to date precipitation 2.55  
Year to date precipitation 36.14  
Snow  
Snow 0.00 in 0.00 in 2.60 in (1946)
Month to date snowfall 0.3  
Since 1 July snowfall 0.3  
Snow Depth -    
Sea Level Pressure  
Sea Level Pressure 30.07 in    
Wind  
Wind Speed 5 mph (SE)    
Max Wind Speed 15 mph    
Max Gust Speed 22 mph    
Visibility 4 miles    
Events Fog , Rain    
T = Trace of Precipitation, MM = Missing Value Source: NWS Daily Summary

Daily Weather History Graph

Daily Weather History Graph

Search for Another Location

Airport or City:

Trip Planner

Search our weather history database for the weather conditions in past years. The results will help you decide how hot, cold, wet, or windy it might be!

Date:

Astronomy

Dec. 31, 2012 Rise Set
Actual Time 7:33 AM CST 5:31 PM CST
Civil Twilight 7:05 AM CST 5:58 PM CST
Nautical Twilight 6:34 AM CST 6:29 PM CST
Astronomical Twilight 6:04 AM CST 6:59 PM CST
Moon 8:52 PM CST (12/31) 9:24 AM CST (12/31)
Length of Visible Light 10h 52m
Length of Day
9h 57m
Waning Gibbous, 90% of the Moon is Illuminated
Dec 31
Waning Gibbous
Jan 4
Last Quarter
Jan 11
New
Jan 18
First Quarter
Jan 26
Full

Hourly Weather History & Observations

Time (CST) Temp. Windchill Dew Point Humidity Pressure Visibility Wind Dir Wind Speed Gust Speed Precip Events Conditions
12:15 AM 35.6 °F 32.8 °F 33.8 °F 93% 30.23 in 10.0 mi East 3.5 mph - N/A   Drizzle
12:35 AM 35.6 °F 32.8 °F 33.8 °F 93% 30.22 in 5.0 mi East 3.5 mph - 0.01 in Rain Rain
12:55 AM 35.6 °F 32.8 °F 33.8 °F 93% 30.21 in 5.0 mi East 3.5 mph - 0.02 in Rain Light Rain
1:15 AM 33.8 °F 29.6 °F 33.8 °F 100% 30.20 in 5.0 mi East 4.6 mph - 0.01 in Rain Rain
1:35 AM 35.6 °F 31.7 °F 33.8 °F 93% 30.19 in 7.0 mi East 4.6 mph - 0.02 in Rain Rain
1:55 AM 35.6 °F 31.7 °F 33.8 °F 93% 30.18 in 10.0 mi ESE 4.6 mph - 0.03 in   Drizzle
2:15 AM 35.6 °F 30.7 °F 33.8 °F 93% 30.18 in 7.0 mi ESE 5.8 mph - N/A Rain Light Rain
2:35 AM 35.6 °F 29.9 °F 33.8 °F 93% 30.16 in 10.0 mi ESE 6.9 mph - 0.01 in Rain Rain
2:55 AM 35.6 °F 29.9 °F 33.8 °F 93% 30.15 in 10.0 mi SE 6.9 mph - 0.01 in   Drizzle
3:15 AM 35.6 °F 30.7 °F 33.8 °F 93% 30.15 in 5.0 mi SE 5.8 mph - 0.01 in Rain Light Rain
3:35 AM 35.6 °F 30.7 °F 33.8 °F 93% 30.15 in 5.0 mi ESE 5.8 mph - 0.02 in Rain Light Rain
3:55 AM 35.6 °F 29.9 °F 33.8 °F 93% 30.13 in 5.0 mi SE 6.9 mph - 0.04 in Rain Light Rain
4:15 AM 35.6 °F 28.6 °F 33.8 °F 93% 30.12 in 5.0 mi SE 9.2 mph - 0.01 in Rain Light Rain
4:35 AM 35.6 °F 28.0 °F 33.8 °F 93% 30.10 in 7.0 mi SE 10.4 mph - 0.02 in Rain Rain
4:55 AM 35.6 °F 29.2 °F 33.8 °F 93% 30.09 in 7.0 mi SE 8.1 mph - 0.02 in   Drizzle
5:15 AM 35.6 °F 29.9 °F 33.8 °F 93% 30.09 in 5.0 mi SE 6.9 mph - N/A Rain Light Rain
5:35 AM 35.6 °F 29.9 °F 33.8 °F 93% 30.09 in 5.0 mi SSE 6.9 mph - 0.02 in Rain Light Rain
5:55 AM 35.6 °F 30.7 °F 33.8 °F 93% 30.10 in 5.0 mi SSE 5.8 mph - 0.03 in Rain Light Rain
6:15 AM 35.6 °F 29.9 °F 33.8 °F 93% 30.10 in 4.0 mi SSE 6.9 mph - 0.03 in Rain Rain
6:35 AM 35.6 °F 27.5 °F 33.8 °F 93% 30.07 in 2.5 mi SE 11.5 mph - 0.07 in Rain Light Rain
6:55 AM 35.6 °F 26.2 °F 33.8 °F 93% 30.03 in 2.5 mi SE 15.0 mph - 0.07 in Rain Light Rain
7:15 AM 35.6 °F 27.5 °F 33.8 °F 93% 30.04 in 3.0 mi SE 11.5 mph 21.9 mph 0.01 in Rain Light Rain
7:35 AM 35.6 °F 27.1 °F 33.8 °F 93% 30.01 in 3.0 mi SE 12.7 mph 20.7 mph 0.02 in Rain Light Rain
7:55 AM 35.6 °F 30.7 °F 35.6 °F 100% 30.08 in 5.0 mi SSW 5.8 mph - 0.02 in Rain Light Rain
8:15 AM 35.6 °F 30.7 °F 35.6 °F 100% - 5.0 mi SW 5.8 mph - N/A   Light Drizzle
8:35 AM 35.6 °F 31.7 °F 35.6 °F 100% 30.08 in 5.0 mi South 4.6 mph - N/A   Overcast
8:55 AM 35.6 °F 30.7 °F 35.6 °F 100% 30.09 in 2.0 mi SSW 5.8 mph - N/A Rain Light Rain
9:15 AM 35.6 °F 32.8 °F 35.6 °F 100% 30.10 in 2.0 mi South 3.5 mph - N/A Rain Light Rain
9:35 AM 35.6 °F - 35.6 °F 100% 30.11 in 2.0 mi Calm Calm - 0.01 in   Overcast
9:55 AM 35.6 °F - 35.6 °F 100% 30.12 in 1.2 mi Calm Calm - 0.02 in Rain Rain
10:15 AM 35.6 °F - 35.6 °F 100% 30.12 in 0.8 mi Calm Calm - 0.01 in   Drizzle
10:35 AM 35.6 °F 32.8 °F 35.6 °F 100% 30.11 in 0.8 mi East 3.5 mph - 0.04 in   Heavy Drizzle
10:55 AM 35.6 °F 31.7 °F 35.6 °F 100% 30.10 in 0.8 mi ESE 4.6 mph - 0.05 in   Light Drizzle
11:15 AM 37.4 °F 32.8 °F 35.6 °F 93% 30.09 in 1.0 mi ESE 5.8 mph - N/A   Overcast
11:35 AM 37.4 °F - 35.6 °F 93% 30.08 in 1.2 mi Calm Calm - N/A   Overcast
11:55 AM 37.4 °F 30.3 °F 37.4 °F 100% 30.04 in 0.8 mi SE 10.4 mph - 0.01 in   Light Drizzle
12:15 PM 37.4 °F 30.3 °F 37.4 °F 100% 30.04 in 1.5 mi SE 10.4 mph - N/A   Overcast
12:35 PM 39.2 °F 33.6 °F 37.4 °F 93% 30.02 in 2.5 mi SSE 8.1 mph - N/A   Overcast
12:55 PM 42.8 °F 37.5 °F 42.8 °F 100% 30.00 in 4.0 mi South 9.2 mph - N/A   Overcast
1:15 PM 44.6 °F 39.2 °F 42.8 °F 93% 29.99 in 7.0 mi SSE 10.4 mph - N/A   Overcast
1:35 PM 42.8 °F 37.5 °F 42.8 °F 100% 29.99 in 7.0 mi SSE 9.2 mph - N/A   Overcast
1:55 PM 42.8 °F 37.5 °F 42.8 °F 100% 29.98 in 7.0 mi SSE 9.2 mph - N/A   Overcast
2:15 PM 44.6 °F 40.2 °F 44.6 °F 100% 29.98 in 7.0 mi SSE 8.1 mph - N/A   Overcast
2:35 PM 44.6 °F 39.7 °F 44.6 °F 100% 29.98 in 10.0 mi South 9.2 mph - N/A   Overcast
2:55 PM 44.6 °F 41.4 °F 44.6 °F 100% 29.98 in 7.0 mi SSE 5.8 mph - N/A   Overcast
3:15 PM 44.6 °F 41.4 °F 42.8 °F 93% 29.98 in 7.0 mi SSE 5.8 mph - N/A   Overcast
3:35 PM 44.6 °F 40.7 °F 44.6 °F 100% 29.98 in 7.0 mi SSE 6.9 mph - N/A   Overcast
3:55 PM 44.6 °F 42.2 °F 42.8 °F 93% 29.98 in 5.0 mi SSE 4.6 mph - N/A   Overcast
4:15 PM 44.6 °F 42.2 °F 42.8 °F 93% 30.00 in 5.0 mi SSE 4.6 mph - N/A   Overcast
4:35 PM 44.6 °F - 42.8 °F 93% 30.00 in 5.0 mi Calm Calm - N/A   Overcast
4:55 PM 44.6 °F 43.1 °F 42.8 °F 93% 29.99 in 5.0 mi SE 3.5 mph - N/A   Overcast
5:15 PM 44.6 °F 42.2 °F 42.8 °F 93% 30.00 in 4.0 mi ESE 4.6 mph - N/A   Overcast
5:35 PM 44.6 °F 43.1 °F 44.6 °F 100% 30.00 in 4.0 mi East 3.5 mph - N/A   Overcast
5:55 PM 44.6 °F - 44.6 °F 100% 30.00 in 4.0 mi Calm Calm - N/A   Overcast
6:15 PM 44.6 °F 43.1 °F 44.6 °F 100% 30.01 in 4.0 mi NNE 3.5 mph - N/A   Overcast
6:35 PM 44.6 °F - 44.6 °F 100% 30.02 in 4.0 mi Calm Calm - N/A   Overcast
6:55 PM 44.6 °F - 44.6 °F 100% 30.03 in 3.0 mi Calm Calm - N/A   Overcast
7:15 PM 44.6 °F - 44.6 °F 100% 30.04 in 3.0 mi Calm Calm - N/A   Overcast
7:35 PM 42.8 °F - 42.8 °F 100% 30.05 in 3.0 mi Calm Calm - N/A   Overcast
7:55 PM 41.0 °F 39.0 °F 41.0 °F 100% 30.06 in 0.5 mi NNW 3.5 mph - N/A Fog Fog
8:15 PM 41.0 °F 39.0 °F 39.2 °F 93% 30.06 in 1.0 mi North 3.5 mph - N/A   Overcast
8:35 PM 39.2 °F 34.2 °F 37.4 °F 93% 30.05 in 0.2 mi North 6.9 mph - N/A Fog Fog
8:55 PM 37.4 °F 33.8 °F 37.4 °F 100% 30.05 in 0.2 mi North 4.6 mph - N/A Fog Fog
9:15 PM 37.4 °F 33.8 °F 37.4 °F 100% 30.06 in 0.2 mi North 4.6 mph - N/A Fog Fog
9:35 PM 37.4 °F - 37.4 °F 100% 30.07 in 0.5 mi Calm Calm - N/A Fog Fog
9:55 PM 37.4 °F - 37.4 °F 100% 30.08 in 0.2 mi Calm Calm - N/A Fog Fog
10:15 PM 35.6 °F - 35.6 °F 100% 30.08 in 0.2 mi Calm Calm - N/A Fog Fog
10:35 PM 35.6 °F - 33.8 °F 93% 30.09 in 0.2 mi Calm Calm - N/A Fog Fog
10:55 PM 33.8 °F 30.8 °F 32.0 °F 93% 30.09 in 0.2 mi WNW 3.5 mph - N/A Fog Fog
11:15 PM 32.0 °F 28.7 °F 32.0 °F 100% 30.09 in 0.2 mi WNW 3.5 mph - N/A Fog Fog
11:35 PM 32.0 °F 27.5 °F 32.0 °F 100% 30.08 in 0.5 mi NW 4.6 mph - N/A Fog Fog
11:55 PM 33.8 °F - 32.0 °F 93% 30.09 in 1.0 mi Calm Calm - N/A   Mostly Cloudy